Flag for U.S.A. Weather past 2 weeks in Livonia, Michigan, U.S.A.

Now
68 °F

Mostly cloudy.


Feels Like: 68 °F
Forecast: 70 / 81 °F
Wind: 6 mph from South

Location: Detroit Metropolitan Wayne County Airport

Current Time: Aug 31, 2014 at 6:32:56 AM

Latest Report: Aug 31, 2014 at 5:53 AM


Visibility: 10 mi

Pressure: 29.92 "Hg

Humidity: 93%

Dew point: 66 °F

Location of LivoniaLocation

Historic Weather in Livonia — Graph

°F

Livonia temperature yesterday

Maximum temperature yesterday: 86 °F (at 4:53 PM)
Minimum temperature yesterday: 68 °F (at 5:53 AM)
Average temperature yesterday: 77 °F

Past Weeks' High & Low Weather Summary

 TemperatureHumidityPressure
High89 °F (Aug 26, 2:53 PM)100% (Aug 20, 1:58 AM)30.16 "Hg (Aug 20, 1:58 AM)
Low53 °F (Aug 16, 4:53 AM)40% (Aug 28, 4:53 PM)29.75 "Hg (Aug 19, 4:53 PM)
Average72 °F75%29.99 "Hg
* Reported Aug 16 4:53 AM — Aug 31 4:53 AM, Livonia, Weather by CustomWeather, © 2014

Note: Actual official high and low records may vary slightly from our data, if they occured in-between our weather recording intervals... More about our weather records

Advertising

Livonia weather history for previous 24 hours

 ConditionsComfort  
Time TempWeatherWind HumidityBarometerVisibility
4:53 AM
Aug 31
68 °FMostly cloudy.7 mph93%29.91 "Hg10 mi
3:53 AM72 °FLight rain. Mostly cloudy.12 mph76%29.93 "Hg10 mi
2:53 AM74 °FLight rain. Mostly cloudy.13 mph74%29.93 "Hg10 mi
1:53 AM75 °FMostly cloudy.16 mph82%29.92 "Hg8 mi
12:53 AM76 °FMostly cloudy.17 mph80%29.92 "Hg10 mi
11:53 PM
Aug 30
76 °FMostly cloudy.17 mph77%29.92 "Hg10 mi
10:53 PM76 °FMostly cloudy.18 mph77%29.90 "Hg10 mi
9:53 PM78 °FMostly cloudy.18 mph74%29.91 "Hg10 mi
8:53 PM79 °FMore clouds than sun.16 mph69%29.90 "Hg10 mi
7:53 PM80 °FBroken clouds.17 mph64%29.87 "Hg10 mi
6:53 PM83 °FBroken clouds.20 mph59%29.87 "Hg10 mi
5:53 PM84 °FBroken clouds.18 mph59%29.87 "Hg10 mi
4:53 PM86 °FBroken clouds.22 mph51%29.88 "Hg10 mi
3:53 PM84 °FBroken clouds.24 mph55%29.90 "Hg10 mi
2:53 PM81 °FOvercast.14 mph62%29.91 "Hg10 mi
1:53 PM85 °FBroken clouds.20 mph57%29.92 "Hg10 mi
12:53 PM83 °FBroken clouds.20 mph61%29.93 "Hg10 mi
11:53 AM83 °FPartly sunny.17 mph61%29.93 "Hg10 mi
10:53 AM80 °FPartly sunny.13 mph64%29.95 "Hg10 mi
9:53 AM77 °FPartly sunny.12 mph69%29.96 "Hg10 mi
8:53 AM74 °FPartly sunny.10 mph74%29.96 "Hg10 mi
7:53 AM72 °FPartly cloudy.8 mph76%29.97 "Hg10 mi
6:53 AM70 °FPartly cloudy.7 mph81%29.96 "Hg10 mi
Weather by CustomWeather, © 2014

See weather overviewHow to use our weather pages